www.pogodaiklimat.ru
ПОГОДА в Калише

Архив погоды в Калише (Польша)

Время
(UTC), дата
16 21.05
17 21.05
18 21.05
19 21.05
20 21.05
21 21.05
22 21.05
23 21.05
00 22.05
01 22.05
02 22.05
03 22.05
04 22.05
05 22.05
06 22.05
07 22.05
08 22.05
09 22.05
10 22.05
11 22.05
12 22.05
13 22.05
14 22.05
15 22.05
16 22.05
17 22.05
18 22.05
19 22.05
20 22.05
21 22.05
22 22.05
23 22.05
00 23.05
01 23.05
02 23.05
03 23.05
04 23.05
05 23.05
06 23.05
07 23.05
08 23.05
09 23.05
10 23.05
11 23.05
12 23.05
13 23.05
14 23.05
15 23.05
16 23.05
17 23.05
18 23.05
19 23.05
20 23.05
21 23.05
22 23.05
23 23.05
00 24.05
01 24.05
02 24.05
03 24.05
04 24.05
05 24.05
06 24.05
07 24.05
08 24.05
09 24.05
10 24.05
11 24.05
12 24.05
13 24.05
14 24.05
15 24.05
16 24.05
17 24.05
18 24.05
19 24.05
20 24.05
21 24.05
22 24.05
23 24.05
00 25.05
01 25.05
02 25.05
03 25.05
04 25.05
05 25.05
06 25.05
07 25.05
08 25.05
09 25.05
10 25.05
11 25.05
12 25.05
13 25.05
14 25.05
15 25.05
16 25.05
17 25.05
18 25.05
19 25.05
20 25.05
21 25.05
22 25.05
23 25.05
00 26.05
01 26.05
02 26.05
03 26.05
04 26.05
05 26.05
06 26.05
07 26.05
08 26.05
09 26.05
10 26.05
11 26.05
12 26.05
13 26.05
14 26.05
15 26.05
16 26.05
17 26.05
18 26.05
19 26.05
20 26.05
21 26.05
22 26.05
23 26.05
00 27.05
01 27.05
02 27.05
03 27.05
04 27.05
05 27.05
06 27.05
07 27.05
08 27.05
09 27.05
10 27.05
11 27.05
12 27.05
13 27.05
14 27.05
15 27.05
16 27.05
17 27.05
18 27.05
19 27.05
20 27.05
21 27.05
22 27.05
23 27.05
00 28.05
01 28.05
02 28.05
03 28.05
04 28.05
05 28.05
06 28.05
07 28.05
08 28.05
09 28.05
10 28.05
11 28.05
12 28.05
13 28.05
14 28.05
15 28.05
16 28.05
Ветер
(напр.,м/с)
Видим. Явления Облачность Т
(С)
Тd
(С)
f
(%)
Тe
(С)
Тes
(С)
Комфортность P
(гПа)
Po
(гПа)
Тmin
(С)
Tmax
(С)
R
(мм)
R24
(мм)
S
(см)
В 4 45 км 9/3 2000 м
[Sc diur, vesp Cs]
+26.9 +10.6 36 +28 +29 жарко 1009.5 993.6
В 4 40 км 9/3 2000 м
[Sc diur, vesp Ac trans Cs]
+26.3 +10.0 36 +27 +27 жарко 1009.6 993.6
СВ 3 {10} 45 км 9/1 2000 м
[Sc diur, vesp Ac trans Cs]
+24.7 +10.2 40 +26 +26 жарко 1009.3 993.3 +18.8 +27.4
СВ 3 50 км 9/1 2000 м
[Sc Ac trans Cs]
+22.6 +11.0 48 +25 +25 комфорт 1009.9 993.7
СВ 3 50 км 9/0
[Ac und Cs]
+21.2 +11.2 53 +23 +23 комфорт 1010.0 993.8
СВ 3 50 км н/о +20.4 +11.1 55 +22 +22 комфорт 1009.9 993.6
В 4 50 км н/о +20.5 +11.1 55 +22 +22 комфорт 1009.7 993.4
СВ 4 50 км н/о +20.3 +11.5 57 +22 +22 комфорт 1009.4 993.1
СВ 3 50 км н/о +19.6 +11.6 60 +21 +21 комфорт 1009.3 993.0
СВ 4 50 км н/о +19.4 +11.9 62 +21 +21 комфорт 1009.1 992.8
СВ 4 50 км н/о +19.0 +12.3 65 +20 +20 1008.5 992.2
СВ 4 40 км н/о +17.7 +12.4 71 +17 +17 1008.5 992.1
СВ 4 35 км н/о +17.5 +12.8 74 +17 +17 1008.7 992.3
СВ 5 30 км 6/0
[Ac trans]
+18.5 +13.8 74 +19 +20 1008.5 992.1
В 4 23 км 6/0
[Ac trans Cs]
+20.3 +14.4 69 +23 +25 комфорт 1008.5 992.2 +17.4 +24.7
В 4 28 км 4/0
[Ac trans Ci sp]
+21.7 +14.8 65 +25 +30 комфорт 1008.5 992.3
В 4 24 км 3/0
[Ac trans Ci sp]
+23.2 +15.3 61 +27 +34 душно 1008.5 992.4
В 4 25 км 3/1 1000 м
[Cu med, cong Ac trans Ci sp]
+24.1 +15.6 59 +27 +35 жарко 1008.5 992.4
В 4 30 км 6/3 1000 м
[Cb calv Ac trans Ci sp]
+25.1 +14.8 53 +28 +34 жарко 1008.0 992.0
В 3 30 км 9/9 1000 м
[Cb calv]
+25.1 +15.1 54 +28 +29 жарко 1007.6 991.6
Ю 3 7000 м гроза, ливневой дождь 9/9 1000 м
[Cb cap]
+22.1 +16.8 72 +26 +28 душно 1007.5 991.4 2
В 3 30 км гроза, ливневой дождь 9/9 1000 м
[Cb cap]
+20.4 +16.4 78 +24 +25 комфорт 1007.7 991.5
В 5 13 км гроза, ливневой дождь 9/9 1000 м
[Cb cap]
+19.7 +16.9 84 +22 +22 комфорт 1008.4 992.1
В 4 12 км гроза, ливневой дождь 9/9 1000 м
[Cb cap]
+17.8 +16.1 90 +18 +18 1008.9 992.5
30 км в посл. час гроза {ливн. дождь} н/о +18.1 +16.3 89 +18 +20 1008.6 992.2
ЮВ 3 40 км в посл. час ливневой дождь 9/4 1000 м
[Sc Ac As]
+19.2 +15.3 78 +21 +21 комфорт 1007.9 991.6
ЮВ 2 45 км {гроза, ливн. дождь} 9/5 1000 м
[Cb cap Ac As]
+18.9 +15.8 82 +21 +21 комфорт 1009.2 992.8 +17.8 +25.9 4
С 1 24 км 9/5 1000 м
[Cb cap Ac As]
+18.0 +16.3 90 +19 +19 1009.4 993.0
В 2 15 км 9/3 1000 м
[Cb cap Ac As]
+17.7 +16.2 91 +18 +18 1010.1 993.7
ЮВ 2 35 км н/о +17.4 +16.1 92 +18 +18 1010.4 993.9
Ю 2 22 км н/о +17.1 +16.1 94 +17 +17 1010.1 993.6
Ю 1 13 км н/о +16.5 +15.9 96 +17 +17 1010.1 993.6
Ю 2 9000 м морось н/о +16.4 +16.1 98 +16 +16 1010.5 994.0 0.2
ЮЗ 3 9000 м слаб. ливневой дождь н/о +16.3 +16.0 98 +16 +16 1010.7 994.2
ЮЗ 2 9000 м н/о +15.6 +14.8 95 +15 +15 1011.3 994.7
ЮЗ 4 8000 м дымка н/о +14.8 +14.5 98 +13 +13 1011.5 994.9
ЮЗ 4 8000 м слаб. морось н/о +14.4 +14.2 99 +13 +13 1012.0 995.3
ЮЗ 4 8000 м слаб. ливневой дождь 10/9 200 м
[Cb cap]
+14.4 +14.2 99 +13 +13 1012.4 995.7
ЮЗ 3 7000 м в посл. час ливневой дождь 10/9 200 м
[Cb cap]
+15.1 +14.9 99 +14 +14 1012.7 996.1 +14.2 +18.9 2 6.0
ЮЗ 4 10 км 10/9 200 м
[St]
+15.5 +14.5 94 +14 +15 1013.2 996.6
ЮЗ 3 6000 м дымка 10/9 300 м
[Sc]
+15.5 +15.0 97 +15 +15 1013.7 997.1
ЮЗ 5 11 км 10/9 300 м
[Sc]
+15.9 +14.8 93 +15 +15 1014.3 997.7
З 4 16 км 10/9 300 м
[Sc]
+16.8 +15.1 90 +16 +17 1014.8 998.2
ЮЗ 3 22 км 9/9 300 м
[Cb cap]
+17.5 +14.9 85 +18 +19 1015.2 998.7
З 3 24 км в посл. час ливневой дождь 9/9 300 м
[Cu Sc]
+18.4 +15.6 84 +19 +20 1015.4 998.9 0.0
З 5 45 км 9/9 300 м
[Cb cap]
+17.9 +14.4 80 +17 +18 1015.5 999.0
З 4 35 км в посл. час ливневой дождь 9/5 300 м
[Cb calv Ac trans]
+19.1 +14.6 75 +20 +22 1015.5 999.1
З 4 30 км {ливн. дождь} 9/3 600 м
[Cb calv Ac trans]
+20.0 +13.9 68 +22 +24 комфорт 1015.9 999.5
З 2 26 км 9/1 600 м
[Sc diur, vesp Ac trans Cs]
+19.1 +13.9 72 +21 +23 комфорт 1016.1 999.6
С 3 26 км 9/1 600 м
[Sc diur, vesp Ac und]
+18.5 +14.4 77 +19 +20 1016.5 1000.0
СЗ 2 24 км {ливн. дождь} 9/3 1000 м
[Sc Ac trans]
+17.7 +13.8 78 +18 +18 1016.6 1000.1 +15.1 +20.2 0.0
С 2 18 км 9/1 1000 м
[Sc Ac trans]
+16.5 +13.6 83 +17 +17 1017.1 1000.5
СЗ 2 13 км 9/0
[Ac trans Cs]
+15.8 +13.5 86 +16 +16 1017.6 1000.9
З 2 12 км н/о +15.5 +13.3 87 +15 +15 1017.8 1001.1
З 1 7000 м дымка н/о +14.8 +13.7 93 +15 +15 1018.2 1001.5
С 2 4700 м дымка н/о +13.8 +13.0 95 +13 +13 1018.6 1001.8
С 3 3700 м дымка н/о +13.6 +13.3 98 +12 +12 1018.5 1001.7
С 3 5000 м дымка н/о +14.2 +13.6 96 +13 +13 1018.8 1002.0
СЗ 1 800 м туман н/о +12.5 +12.2 98 +12 +12 1019.2 1002.3
СЗ 2 200 м туман н/о +11.9 +11.7 99 +11 +11 1019.1 1002.2
С 2 2300 м в посл. час туман н/о +12.3 +12.3 100 +11 +11 1019.2 1002.3
СЗ 1 3300 м дымка 9/0
[Ac trans]
+13.5 +13.5 100 +14 +15 1019.4 1002.6
С 2 7000 м дымка 9/0
[Ac trans]
+16.6 +15.3 92 +17 +19 1019.4 1002.8 +11.6 +17.7 0.0
С 3 14 км 9/0
[Ac trans]
+17.4 +15.6 89 +17 +20 1019.6 1003.0
С 2 14 км 9/3 600 м
[Cb calv Ac trans]
+19.2 +16.1 82 +21 +25 комфорт 1019.5 1003.0
СВ 3 14 км 9/4 600 м
[Cu med, cong Ac trans]
+20.3 +16.3 78 +24 +27 комфорт 1019.4 1003.0
С 3 23 км 9/5 600 м
[Cu med, cong Ac trans]
+21.6 +16.1 71 +25 +29 комфорт 1019.3 1002.9
СВ 4 25 км 9/9 600 м
[Cu med, cong]
+22.5 +16.1 67 +27 +28 душно 1018.7 1002.4
СВ 3 25 км 9/9 1000 м
[Cu med, cong]
+23.4 +15.2 60 +28 +29 душно 1017.9 1001.7
С 5 25 км 9/9 1000 м
[Cb calv]
+24.4 +16.1 60 +28 +28 душно 1017.1 1000.9
С 3 40 км в посл. час ливневой дождь 9/9 1000 м
[Cb cap]
+22.9 +16.0 65 +27 +28 душно 1016.9 1000.6
Ю 6-11 {14} 3500 м гроза, ливневой дождь 10/9 300 м
[Cb cap]
+14.9 +13.4 91 +13 +13 1018.8 1002.1
ЮВ 2 18 км слаб. ливневой дождь, в посл. час гроза 9/9 300 м
[Cb cap]
+15.8 +15.2 96 +16 +16 1018.4 1001.7
В 4 22 км в посл. час ливневой дождь 9/3 1000 м
[Sc Ac As]
+16.0 +15.2 95 +15 +15 1018.2 1001.5
В 3 {14} 35 км {гроза, ливн. дождь} 9/1 1000 м
[Sc Ac As Cs]
+15.8 +14.8 94 +15 +15 1018.3 1001.6 +14.9 +24.9 9
Ю 1 10 км 9/0
[Ac trans Cs]
+15.3 +14.7 96 +16 +16 1018.1 1001.4
В 2 22 км 9/0
[Ac trans Cs]
+15.5 +14.7 95 +15 +15 1018.4 1001.7
В 2 7000 м дымка н/о +14.7 +14.1 96 +14 +14 1019.1 1002.3
В 2 9000 м дымка н/о +14.9 +14.6 98 +15 +15 1019.0 1002.3
В 3 5000 м дымка н/о +14.3 +14.0 98 +13 +13 1019.0 1002.2
В 2 5000 м дымка н/о +14.0 +13.7 98 +13 +13 1019.1 1002.3
В 3 10 км дымка н/о +13.9 +13.4 97 +13 +13 1018.9 1002.1
В 3 7000 м дымка н/о +13.5 +13.2 98 +12 +12 1018.8 1002.0
ЮВ 2 7000 м дымка н/о +13.4 +13.2 99 +13 +13 1018.8 1002.0
ЮВ 2 7000 м дымка н/о +13.7 +13.4 98 +13 +13 1019.0 1002.2
ЮВ 3 10 км 1/0
[Ci fib]
+15.2 +14.2 94 +14 +16 1019.3 1002.6
ЮВ 2 16 км 1/0
[Ci fib]
+17.2 +15.5 90 +18 +22 1019.3 1002.7 +13.2 +17.2 8.8
ЮВ 2 28 км 1/0
[Ci fib]
+19.7 +15.6 77 +22 +30 комфорт 1019.2 1002.7
В 2 27 км 1/0
[Ci fib]
+21.2 +15.1 68 +24 +35 комфорт 1019.2 1002.8
ЮВ 2 30 км 4/3 600 м
[Cu med, cong Ci sp]
+21.7 +14.6 64 +25 +35 комфорт 1019.3 1002.9
Ю 3 26 км 6/4 1000 м
[Cu med, cong Ci sp]
+23.0 +15.3 62 +27 +35 душно 1019.2 1002.9
ЮВ 2 35 км 8/4 1000 м
[Cu med, cong Cs]
+22.5 +15.1 63 +26 +35 жарко 1019.0 1002.7
В 2 40 км 6/4 1000 м
[Cu med, cong Cs]
+23.8 +16.1 62 +27 +36 жарко 1018.7 1002.5
Ю 3 30 км 6/3 1000 м
[Cu med, cong Ac trans Cs]
+24.5 +12.1 46 +26 +32 жарко 1018.2 1002.0
В 3 40 км 8/4 1000 м
[Cb calv Ac trans Ci sp]
+24.5 +13.4 50 +27 +30 жарко 1017.6 1001.4
В 3 40 км 6/5 1000 м
[Cb calv Ac trans Ci sp]
+24.9 +12.8 47 +27 +29 жарко 1017.2 1001.0
Ю 8-14 {14} 40 км гроза без осадков 9/9 1000 м
[Cb cap]
+19.7 +10.7 56 +20 +20 1018.9 1002.4
В 2 {12} 45 км слаб. ливневой дождь, в посл. час гроза 9/5 1000 м
[Cb cap Ac As]
+17.8 +13.1 74 +18 +19 1018.7 1002.1
ЮВ 3 {14} 40 км слаб. ливневой дождь {гроза} 9/5 1000 м
[Cb cap Ac As]
+17.0 +14.3 84 +17 +17 1018.8 1002.2 +16.5 +25.4 0.7
ЮВ 2 20 км в посл. час ливневой дождь 9/3 1000 м
[Cb cap Ac As]
+17.6 +14.9 84 +18 +18 1019.2 1002.6
ЮВ 3 27 км 9/0
[Ac As]
+16.4 +14.8 90 +16 +16 1019.5 1002.8
ЮВ 2 17 км н/о +15.7 +14.6 93 +16 +16 1019.4 1002.7
СВ 1 9000 м н/о +14.6 +14.0 96 +15 +15 1019.8 1003.0
В 2 17 км н/о +14.7 +13.9 95 +14 +14 1019.6 1002.8
В 2 7000 м дымка н/о +14.2 +13.9 98 +14 +14 1019.8 1003.0 0.1
В 3 4600 м дымка н/о +14.0 +13.5 97 +13 +13 1019.6 1002.8
В 2 6000 м дымка н/о +13.7 +13.1 96 +13 +13 1019.6 1002.8
В 3 5000 м дымка н/о +13.2 +12.7 97 +12 +12 1019.7 1002.9
В 3 11 км дымка н/о +14.5 +13.2 92 +14 +14 1019.8 1003.0
ЮВ 2 20 км 4/0
[Ac trans Ci sp]
+15.9 +13.7 87 +16 +18 1020.1 1003.4
В 2 20 км 6/1 600 м
[Cu med, cong Ac trans Cs]
+17.6 +14.5 82 +18 +21 1020.4 1003.8 +12.8 +18.1 0.1 0.8
В 3 20 км 8/0
[Ac trans Cs]
+19.3 +15.8 80 +21 +27 комфорт 1020.6 1004.1
В 2 25 км 8/0
[Ac trans Cs]
+21.0 +15.3 70 +25 +34 комфорт 1020.6 1004.2
В 3 25 км 9/0
[Cs]
+23.0 +15.6 63 +27 +37 душно 1020.5 1004.2
Ю 3 30 км 9/0
[Cs]
+24.0 +15.0 57 +27 +38 жарко 1020.2 1004.0
ЮВ 3 30 км 8/1 1000 м
[Cu hum Cs]
+24.9 +14.1 51 +27 +38 жарко 1020.3 1004.1
В 3 30 км 4/3 1500 м
[Cu med, cong Ci sp]
+25.9 +13.7 47 +28 +37 жарко 1019.8 1003.7
В 3 30 км 4/3 2000 м
[Cu med, cong Ci sp]
+25.6 +12.4 44 +27 +35 жарко 1019.6 1003.4
В 3 30 км 3/1 2000 м
[Cu med, cong Ci sp]
+26.4 +13.2 44 +28 +36 жарко 1019.0 1002.9
В 3 {8} 35 км 4/3 1500 м
[Cb calv Ci sp]
+26.5 +12.2 41 +28 +32 жарко 1018.7 1002.6
В 3 40 км гроза без осадков 6/4 1000 м
[Cb cap Ac trans Ci sp]
+26.1 +11.8 41 +27 +29 жарко 1018.4 1002.3
ЮВ 5-10 {11} 12 км гроза, ливневой дождь 9/9 1000 м
[Cb cap]
+19.3 +15.0 76 +21 +21 комфорт 1020.6 1004.1
В 3 {11} 20 км гроза, ливневой дождь 9/9 1000 м
[Cb cap]
+18.4 +15.1 81 +19 +19 1020.9 1004.3 +17.6 +26.7 2
СВ 5 15 км ливневой дождь, в посл. час гроза 9/6 1000 м
[Cb cap Ac trans]
+17.5 +13.6 78 +17 +17 1021.7 1005.1
С 2 20 км слаб. ливневой дождь 10/9 1000 м
[Cb cap]
+16.9 +15.1 89 +17 +17 1021.7 1005.0
З 2 26 км в посл. час дождь н/о +16.6 +15.5 93 +17 +17 1020.5 1003.8
В 1 50 км н/о +16.5 +14.3 87 +17 +17 1020.9 1004.2
Ю 3 30 км н/о +16.0 +14.9 93 +15 +15 1021.4 1004.7
В 2 40 км н/о +15.8 +14.0 89 +16 +16 1020.7 1004.0 2
В 2 35 км н/о +15.3 +13.7 90 +15 +15 1020.2 1003.5
В 1 22 км н/о +15.5 +13.3 87 +16 +16 1020.0 1003.3
Ю 1 14 км н/о +14.2 +13.4 95 +14 +14 1020.2 1003.4
Ю 2 20 км н/о +15.4 +14.3 93 +15 +15 1020.2 1003.5
ЮВ 2 24 км 3/0
[Ac trans Ci fib]
+17.1 +14.0 82 +17 +19 1020.3 1003.7
ЮВ 2 22 км 3/0
[Ac trans Ci fib]
+19.2 +15.3 78 +21 +25 комфорт 1020.3 1003.8 +14.2 +19.2 2 4.7
ЮВ 3 27 км 3/0
[Ac trans Ci]
+21.2 +14.6 66 +24 +30 комфорт 1020.2 1003.8
ЮВ 3 26 км 3/0
[Ac trans Ci fib]
+22.8 +14.6 60 +26 +35 жарко 1020.0 1003.7
Ю 3 35 км 3/0
[Ci fib]
+24.4 +15.6 58 +27 +39 жарко 1019.8 1003.6
ЮВ 4 35 км 3/1 1000 м
[Cu med, cong Ci fib]
+24.9 +13.4 49 +27 +37 жарко 1019.5 1003.3
ЮВ 4 35 км 4/4 1500 м
[Cu med, cong Ci fib]
+26.3 +12.4 42 +28 +35 жарко 1018.9 1002.8
ЮВ 4 45 км 6/4 2000 м
[Cu med, cong Ci]
+26.1 +11.4 40 +27 +33 жарко 1018.5 1002.4
ЮВ 4 40 км 6/4 2000 м
[Cu med, cong Ci fib]
+27.9 +11.0 35 +29 +34 жарко 1017.9 1001.9
В 4 45 км 6/4 2000 м
[Cu med, cong Ac cuf Ci fib]
+26.5 +11.4 39 +28 +31 жарко 1017.2 1001.1
ЮВ 3 30 км 5/3 2000 м
[Cu med, cong Ac cuf Ci fib]
+27.5 +10.7 35 +28 +32 жарко 1016.5 1000.5
ЮВ 4 35 км 6/3 2000 м
[Cu med, cong Cs]
+27.3 +7.7 29 +27 +29 жарко 1016.1 1000.1
В 3 40 км 8/1 2000 м
[Sc diur, vesp Cs]
+25.9 +9.7 36 +27 +28 жарко 1016.2 1000.1
В 2 50 км 8/1 2000 м
[Sc diur, vesp Ac trans Cs]
+24.3 +10.9 43 +26 +26 жарко 1016.4 1000.2 +19.2 +28.1
В 2 50 км 8/1 2000 м
[Sc diur, vesp Ac und Cs]
+22.1 +10.6 48 +24 +24 комфорт 1016.6 1000.3
ЮВ 1 45 км 8/0
[Ac trans Cs]
+20.4 +10.2 52 +23 +23 комфорт 1016.9 1000.5
В 2 50 км н/о +20.4 +7.7 44 +22 +22 комфорт 1016.6 1000.2
ЮВ 3 45 км н/о +18.7 +8.6 52 +19 +19 1016.8 1000.3
ЮВ 3 50 км н/о +18.5 +8.7 53 +19 +19 1016.8 1000.3
В 3 45 км н/о +18.2 +7.9 51 +18 +18 1016.5 1000.0
В 2 45 км н/о +17.1 +8.0 55 +17 +17 1016.4 999.8
В 3 45 км н/о +15.5 +8.5 63 +15 +15 1016.3 999.6
В 3 40 км н/о +14.9 +8.4 65 +14 +14 1016.1 999.4
В 2 40 км н/о +15.2 +8.9 66 +15 +15 1016.0 999.3
В 2 40 км 1/1 600 м
[Cu hum Ci fib]
+16.5 +9.9 65 +17 +19 1016.0 999.4
ЮВ 2 35 км 3/0
[Ac trans Ci fib]
+19.3 +11.3 60 +21 +25 комфорт 1015.8 999.4 +14.6 +24.3
ЮВ 3 35 км 1/0
[Ac trans Ci fib]
+21.4 +12.8 58 +24 +30 комфорт 1015.6 999.3
ЮВ 2 35 км 1/1 1000 м
[Cu med, cong Ac trans Ci fib]
+23.7 +13.3 52 +26 +36 жарко 1015.5 999.3
ЮВ 3 35 км 3/1 1000 м
[Cu med, cong Ac trans Ci fib]
+25.0 +12.9 47 +27 +37 жарко 1015.4 999.3
Ю 2 35 км 4/3 1500 м
[Cu med, cong Ci]
+25.9 +10.9 39 +27 +38 жарко 1015.0 998.9
ЮВ 3 30 км 5/4 2000 м
[Cu med, cong Ci fib]
+26.6 +9.9 35 +27 +35 жарко 1014.3 998.3
В 4 {9} 35 км 6/5 2000 м
[Cu med, cong Ci fib]
+26.6 +11.5 39 +28 +33 жарко 1013.8 997.8
В 5 40 км 6/5 1500 м
[Cb cap Ac cuf Ci fib]
+27.3 +10.9 36 +28 +31 жарко 1013.3 997.3
ЮЗ 5 {11} 40 км зарница 9/9 1500 м
[Cb cap]
+23.2 +13.9 56 +27 +27 душно 1014.7 998.5
З 4 {11} 45 км в посл. час ливневой дождь 9/9 1500 м
[Cb cap]
+20.8 +12.0 57 +23 +24 комфорт 1015.4 999.1
СЗ 5 45 км 9/5 1500 м
[Sc Ac As]
+19.0 +14.9 77 +20 +20 1015.4 999.0
Местоположение метеостанции Калиш (Польша): широта 51.78 долгота 18.08 высота над уровнем моря 140 м.
В архиве по умолчанию представлена погода в Калише за последнюю неделю. Архивные данные за месяц целиком и за предыдущие месяцы, начиная с января 2011 года, Вы можете получить, выбрав интересующий диапазон дат из раскрывающегося списка и нажав кнопку "Найти!".
*Определитесь, кто Вы:
Внимание! Время в таблицах - всемирное. Для получения местного времени необходимо прибавить поправку, которая равна 1 ч.
Некоторые строки с данными для отдельных станций могут быть выделены курсивом. Это означает, что фактические данные отсутствуют по различным причинам, а приведенные значения являются расчетными модельными данными для данного пункта наблюдений.
Смотрите также архив погоды в соседних городах и на ближайших метеорологических станциях:
Партнеры нашего сайта:      
Пояснения к столбцам:
  • Ветер - указаны скорость ветра в м/с - средняя за 10 мин, порывы в срок и между сроками (в фигурных скобках) и направление, откуда дует ветер: С - северный,
  • СВ - северо-восточный, В - восточный, ЮВ - юго-восточный, Ю - южный, ЮЗ - юго-западный, З - западный, СЗ - северо-западный.
  • Видимость - горизонтальная дальность видимости в метрах или километрах. При видимости от 1 до 10 км при отсутствии осадков обычно наблюдается дымка, при ухудшении видимости до 1 км и менее - туман. В сухую погоду видимость может ухудшаться дымом, пылью или мглою.
  • Явления - указаны атмосферные явления, наблюдавшиеся в срок или в последний час перед сроком; фигурными скобками обозначены явления, наблюдавшиеся между сроками (за 1-3 часа до срока); квадратными скобками обозначены град или гололедные отложения с указанием их диаметра в мм.
  • Облачность - указаны через наклонную черту общая и нижняя облачность в баллах и высота нижней границы облаков в метрах; квадратными скобками обозначены формы облаков: Ci - перистые, Cs - перисто-слоистые, Cc - перисто-кучевые, Ac - высококучевые, As - высокослоистые, Sc - слоисто-кучевые, Ns - слоисто-дождевые, Cu - кучевые, Cb - кучево-дождевые. Подробнее классификацию облаков см. в Атласе облаков (PDF).
  • T - Температура воздуха - температура, измеренная на высоте 2 м над землей.
  • Td - Температура точки росы - температура, при понижении до которой содержащийся в воздухе водяной пар достигнет насыщения.
  • f - Относительная влажность воздуха - влажноcть воздуха, измеренная на высоте 2 м над землей.
  • Te - Эффективная температура - температура, которую ощущает одетый по сезону человек в тени. Характеристика душности погоды. При расчете учитывается влияние влажности воздуха и скорости ветра на теплоощущения человека.
  • Tes - Эффективная температура на солнце - температура, которую ощущает человек, с поправкой на солнечный нагрев. Характеристика знойности погоды. Зависит от высоты солнца над горизонтом, облачности и скорости ветра. Ночью, в пасмурную погоду, а также при ветре 12 м/с и более поправка равна нулю.
  • P - Атмосферное давление - приведенное к уровню моря атмосферное давление.
  • Po - Атмосферное давление - измеренное на уровне метеостанции атмосферное давление.
  • Tmin - Минимальная температура - минимум температуры воздуха на высоте 2 м над землей.
  • Tmax - Максимальная температура - максимум температуры воздуха на высоте 2 м над землей.
  • R - Количество осадков - Количество выпавших осадков за период времени, мм. При наведении курсора мыши на число - период времени, за который выпало указанное количество осадков.
  • R24 - Количество осадков - Количество выпавших осадков за 24 часа, мм.
  • S - Снежный покров - Высота снежного покрова, см. При наведении курсора мыши на число - состояние снежного покрова и степень покрытия местности в баллах.